Location: Castle Hill Houses
(40.8186°N, 73.8497°W)
Time: 12:17:43
(UTC+00:00)

ISS - Pass Details

Date: 26 January 2020
Orbit: 415 x 423 km, 51.6° (Epoch: 29 February)

Event Time Altitude Azimuth Distance (km) Brightness Sun altitude
Rises 00:22:28 0° 291° (WNW) 2,378 1.1 -26.2°
Reaches altitude 10° 00:25:21 10° 318° (NW) 1,512 -0.5 -26.7°
Enters shadow 00:25:50 12° 325° (NW) 1,415 -0.7 -26.8°
